RH
83 79 79 77 77 74 73 71 67 69 68 65 61 61 60 63 64 66 64 68 85 72 65 62 61 61 60 65 73 78 77 69 60 57 54 55 58 66 68 67 70 70 70
82 81 78 80 80 77 75 69 73 72 70 60 66 59 59 62 60 62 64 68 63 67 67 64 61 62 61 61 60 62 68 68 73 74 66 59 59 62 66 67 65 67 70
80 82 79 75 83 86 79 70 65 66 59 56 57 54 56 55 58 67 64 64 60 62 66 62 64 63 60 55 52 54 54 59 61 65 69 71 61 59 65 66 66 66 67
75 78 77 75 84 78 79 82 84 77 72 74 64 64 64 67 70 68 65 67 71 70 66 67 69 63 59 62 58 50 46 47 50 55 59 63 66 64 66 70 71 71 73
62 62 64 69 72 77 83 79 78 80 72 73 75 70 76 76 78 77 80 80 71 78 75 77 69 68 64 63 70 75 66 56 47 44 45 49 54 57 57 61 62 62 62
60 43 59 69 53 66 78 77 77 76 77 76 75 78 73 76 79 81 83 83 83 77 79 78 79 75 71 71 71 73 78 76 73 64 52 43 42 46 48 49 52 53 53
58 46 48 48 74 46 47 56 48 53 66 78 77 78 80 79 69 77 75 83 76 80 78 74 73 81 84 81 81 77 75 72 76 77 74 65 56 49 43 44 44 45 46
68 64 62 63 65 71 58 61 62 56 48 55 68 76 71 71 84 71 79 75 73 78 75 75 80 74 78 80 81 76 79 76 73 71 73 75 73 65 60 59 53 49 49
59 67 68 68 70 72 68 69 68 71 70 65 64 60 59 58 58 59 79 67 69 66 79 71 79 75 66 76 76 74 76 77 74 69 66 66 71 74 70 63 61 62 60
58 62 63 67 75 79 83 80 76 76 76 77 78 78 77 70 69 82 65 63 74 74 58 70 62 69 74 75 68 61 68 72 79 77 66 62 61 64 69 72 68 63 60
72 74 79 73 74 72 70 75 79 81 80 79 79 80 83 85 84 77 79 78 78 67 67 61 50 68 65 70 67 69 65 62 63 69 73 71 67 63 64 61 65 70 64
72 77 83 79 73 80 82 79 76 77 78 73 75 79 79 81 84 82 79 81 80 79 89 77 74 88 89 72 95 66 60 57 59 57 66 71 71 72 70 70 65 60 69
77 80 81 83 72 73 75 74 76 79 76 77 73 73 74 73 74 76 76 79 81 79 77 80 87 80 84 91 85 79 69 55 52 59 66 62 61 62 70 69 69 61 59
72 69 68 66 62 54 48 52 50 45 53 59 65 62 64 71 77 76 75 77 78 80 81 77 85 90 84 89 89 90 86 79 71 66 67 70 63 53 66 67 65 61 57
47 44 40 33 30 28 27 25 28 30 31 37 47 58 63 66 72 76 79 78 77 81 79 75 74 78 81 84 83 85 82 82 69 78 73 70 70 66 57 62 64 61 54
12 10 9 9 10 13 16 20 24 26 28 29 30 35 49 57 61 69 73 79 76 73 75 76 76 77 81 81 83 76 76 76 72 72 70 70 74 75 68 57 55 60 57
8 8 9 10 11 11 14 16 18 19 23 28 28 33 34 35 38 45 53 59 65 70 73 72 75 80 80 77 75 75 76 74 77 76 74 71 71 75 77 76 69 60 57
12 12 15 15 16 17 17 18 17 17 17 18 21 25 28 32 34 37 37 46 58 64 69 70 74 77 75 74 69 67 69 76 76 74 79 84 79 79 77 77 80 78 69
16 19 19 20 21 21 21 20 19 19 22 25 25 23 25 30 32 36 41 40 45 53 61 63 67 74 71 75 69 73 76 72 74 74 78 77 80 81 79 81 80 79 77
20 22 22 23 22 23 27 23 22 21 20 19 18 15 17 22 26 31 35 39 44 48 53 60 62 66 70 76 68 71 76 73 74 80 80 81 78 79 75 77 81 84 80
21 21 21 23 22 24 21 21 19 18 17 16 16 16 16 21 26 28 32 33 35 42 46 46 48 53 57 67 75 76 78 73 73 85 87 88 81 80 74 73 79 81 80
20 20 19 21 21 21 21 19 19 19 18 18 21 22 21 23 25 28 29 35 35 33 35 36 35 40 44 53 60 62 67 70 73 82 81 85 85 82 77 69 71 75 80
19 19 21 21 21 21 22 21 22 22 21 24 30 30 29 28 30 34 35 42 45 42 42 44 47 46 47 46 49 53 56 59 63 66 77 79 80 78 74 69 72 79 75
19 21 28 27 26 25 25 25 25 25 28 30 35 34 38 37 34 38 34 32 37 46 52 54 57 59 61 61 64 62 66 64 59 61 70 74 82 77 77 67 72 86 79
21 22 25 28 29 26 26 26 26 27 30 31 33 36 37 39 41 38 38 36 34 40 48 52 54 54 54 51 50 51 51 50 54 57 66 70 76 70 66 62 59 61 66
23 23 23 26 29 29 28 27 28 29 30 33 35 40 40 42 41 43 43 44 46 49 53 54 61 62 58 59 60 63 63 60 61 60 63 65 60 59 53 51 55 77 79